{"data":{"norad_id":63261,"intl_designator":"2025-052BD","name":"LEMUR-2-EMERSONROSE","alt_names":[],"object_type":"PAYLOAD","status":"ACTIVE","operator":null,"country":"US","launch_date":"2025-03-15","launch_site_code":"AFWTR","launch_vehicle":null,"mission":null,"orbit_class":"UNKNOWN","rcs_meters":null,"size_class":null,"mass_kg":null,"dimensions":null,"purposes":["earth_obs"],"wikipedia_slug":null,"has_3d_model":false,"image_url":null,"decayed_at":null,"tle_current":{"epoch":"2026-05-24T15:54:38.120544Z","epoch_age_seconds":103876,"freshness":"FRESH","line1":"1 63261U 25052BD  26144.66294121  .00003643  00000+0  30630-3 0  9990","line2":"2 63261  97.6946  38.2875 0003758  98.3514 261.8135 14.98892124 65215","mean_motion":14.98892124,"eccentricity":0.0003758,"inclination_deg":97.6946,"raan_deg":38.2875,"arg_perigee_deg":98.3514,"mean_anomaly_deg":261.8135,"bstar":0.0003063,"rev_number":6521,"period_min":96.070956471314,"perigee_km":567.70688269949,"apogee_km":572.92934156176,"semimajor_km":6948.4551121306,"source":"CELESTRAK","updated_at":"2026-05-25T13:38:13.539558Z"}}}